sat.trackr.live / text

‹ back to catalog

KUIPER-00538

NORAD 69608 · 2026-140S

PAYLOAD ACTIVE UNKNOWN

§ Identity

Operator
Country
US
Launch date
2026-06-17
Launch site
FRGUI
Launch vehicle
Mass (kg)
RCS (m²)

External: N2YO · Heavens-Above · Gunter

§ Orbital elements

Epoch: 2026-09-19T20:33:44.673984Z

Period
97.30 min
Inclination
51.9041°
Eccentricity
0.0000707
Mean motion
14.79945452 rev/d
Perigee alt
629.0 km
Apogee alt
630.0 km
Semi-major
7,007.6 km
B*
2.5618e-4
RAAN
319.4888°
Arg perigee
20.2099°
Mean anomaly
339.8892°
Rev number
1,554

§ Raw data

KUIPER-005381 69608U 26140S   26262.85676706  .00001733  00000+0  25618-3 0  99932 69608  51.9041 319.4888 0000707  20.2099 339.8892 14.79945452 15545

JSON: /api/v1/satellites/69608 · /tle

For live sub-satellite position, see the globe view (requires WebGL).

§ Visibility from observer

Set your observer location to see the next 7 days of passes ≥ 10°. The values pass through the URL so the page stays shareable.

No JS? Fill the form by hand. The geolocation button needs JavaScript.